Regional Weather Roundup
Issued by NWS

Home | Current Version | Previous Version | Graphics & Text | Print | Product List | Glossary On
Versions: 1 2 3 4 5 6 7 8 9 10 11 12 13 14 15 16 17 18 19 20 21 22 23 24 25 26 27 28 29 30 31 32 33 34 35 36 37 38 39 40 41 42 43 44 45 46 47 48 49 50
000
ASUS43 KLOT 310310
RWRIL

ILLINOIS REGIONAL WEATHER ROUNDUP
NATIONAL WEATHER SERVICE CHICAGO/ROMEOVILLE IL
1000 PM CDT SAT AUG 30 2014

NOTE: "FAIR" INDICATES FEW OR NO CLOUDS BELOW 12,000 FEET WITH NO
SIGNIFICANT WEATHER AND/OR OBSTRUCTIONS TO VISIBILITY.

* THESE STATIONS ARE NOT UNDER NWS QUALITY CONTROL. THEY ALSO MAY NOT
  REPORT WEATHER SUCH AS PRECIPITATION OR FOG.

ILZ001-002-007-009-015-016-024-310400-
NORTHWEST ILLINOIS

CITY           SKY/WX    TMP DP  RH WIND       PRES   REMARKS
MOLINE         CLEAR     71  68  90 NW3       29.90R
STERLING*      CLEAR     66  63  88 CALM      29.91S
SAVANNA*       CLEAR     69  66  88 S5        29.89S
$$

ILZ003-004-008-010-011-017-018-310400-
NORTH CENTRAL ILLINOIS

CITY           SKY/WX    TMP DP  RH WIND       PRES   REMARKS
ROCKFORD       CLEAR     69  65  86 CALM      29.91R
FREEPORT*      CLEAR     69  66  91 SW5       29.92S
ROCHELLE*      CLEAR     67  64  91 SW3       29.92S
DE KALB*       CLEAR     65  63  93 S5        29.92S
PERU*          CLEAR     73  68  84 CALM      29.91S
$$

ILZ005-006-012>014-019>023-310400-
NORTHEAST ILLINOIS

CITY           SKY/WX    TMP DP  RH WIND       PRES   REMARKS
CHICAGO-OHARE  PTCLDY    74  64  71 W5        29.90R
CHICAGO-MIDWAY MOCLDY    78  68  71 SW5       29.90R HX  80
AURORA         CLEAR     68  65  90 CALM      29.92R
LANSING*         N/A    N/A N/A N/A MISG        N/A
JOLIET*        PTCLDY    70  67  89 CALM      29.92S
WAUKEGAN       CLEAR     72  65  78 VRB3      29.89R
DUPAGE AIRPORT CLEAR     72  66  81 SW6       29.91R
KANKAKEE*      MOCLDY    71  66  85 SW8       29.93S
WHEELING       CLEAR     76  65  68 CALM      29.91S
MORRIS*        CLEAR     73  71  93 CALM      29.91S
ROMEOVILLE*    PTCLDY    72  68  88 W3        29.91S
NORTHERLY ISL    N/A     78  65  63 SW5         N/A  HX  80
$$

LMZ740>746-310400-
SOUTHERN LAKE MICHIGAN

STATION/POSITION SKY/WX   TEMP    WIND        PRES    VSBY  WAVE
                          AIR SEA DIR/SP/G                  HT/PER
                          (F)     (DEG/KT/KT) (MB)    (MI)  (FT/S)
SOUTHERN BUOY              71 69  250/  6/  8 1011.5R         2/ 4
WAUKEGAN HARBOR            75     250/  7/ 10   N/A
HARRISON CRIB              78     250/  8/ 10   N/A
BURNHAM HARBOR             78     240/  6/  9   N/A
CALUMET HARBOR             76     200/  5/  7 1011.5S
MICHIGAN CITY              73     180/ 13/ 17   N/A
MICHIGAN CITY 6N           73 72  210/ 10/ 12   N/A           1/ 3
ST. JOSEPH                 72 71  210/  8/ 10   N/A           2/ 4
$$

ILZ025>027-034>036-040-047-049-050-058-095>099-310400-
WEST-CENTRAL ILLINOIS

CITY           SKY/WX    TMP DP  RH WIND       PRES   REMARKS
QUINCY         PTCLDY    76  72  87 S6        29.92R
GALESBURG*     CLEAR     69  66  93 CALM      29.91S
MACOMB*        CLEAR     69  67  95 CALM      29.93R
JACKSONVILLE*  MOCLDY    76  73  87 S6        29.93R
PITTSFIELD*    MOCLDY    74  68  81 SW3       29.93R
$$

ILZ028>032-037-038-041>044-048-051>054-059>061-310400-
CENTRAL ILLINOIS

CITY           SKY/WX    TMP DP  RH WIND       PRES   REMARKS
PONTIAC        PTCLDY    73  73 100 CALM      29.92R
DECATUR        CLOUDY    76  72  87 S5        29.95R
PEORIA         PTCLDY    76  71  85 CALM      29.91S
LACON*         PTCLDY    72  68  89 CALM      29.90S
LINCOLN*       MOCLDY    74  69  83 S7        29.89S
SPRINGFIELD    CLOUDY    78  72  81 S9        29.92S HX  80
TAYLORVILLE    MOCLDY    72  70  94 S7        29.94R
$$

ILZ033-039-045-046-055>057-062-063-310400-
EAST-CENTRAL ILLINOIS

CITY           SKY/WX    TMP DP  RH WIND       PRES   REMARKS
CHAMPAIGN      CLOUDY    74  72  93 S9        29.96R
DANVILLE*      HVY RAIN  74  71  91 S9        29.94S
RANTOUL*       CLOUDY    76  71  85 S9        29.96S
MATTOON        CLOUDY    74  71  91 S8        29.96R
PARIS*         CLOUDY    73  71  93 S7        29.99R
$$

ILZ079-100>102-310400-
SOUTHWEST ILLINOIS

CITY           SKY/WX    TMP DP  RH WIND       PRES   REMARKS
BELLEVILLE     CLOUDY    76  74  95 VRB3      29.94R
CAHOKIA*       CLOUDY    76  72  87 S6        29.94R
SPARTA*        CLOUDY    74  70  87 S7        29.98S
$$

ILZ064>066-069>071-074>076-080>082-084>086-088>090-092>094-310400-
SOUTH-CENTRAL ILLINOIS

CITY           SKY/WX    TMP DP  RH WIND       PRES   REMARKS
CARBONDALE     CLOUDY    73  69  87 S8        29.99R
CAIRO*         CLOUDY    76  71  86 S6        30.00R
EFFINGHAM*     CLOUDY    74  68  81 S7        29.97R
MARION         CLOUDY    73  72  94 S3        30.01R
MT. VERNON     CLOUDY    73  68  83 S8        29.99R
CENTRALIA*     CLOUDY    73  68  83 S14       29.97R
SALEM*         CLOUDY    76  72  87 S10       29.97S
METROPOLIS*    CLOUDY    73  73 100 S3        30.00S
$$

ILZ067-068-072-073-078-083-087-091-310400-
SOUTHEAST ILLINOIS

CITY           SKY/WX    TMP DP  RH WIND       PRES   REMARKS
LAWRENCEVILLE  CLOUDY    71  70  96 S8        30.00R
FLORA*         CLOUDY    72  70  94 S8        29.99R
FAIRFIELD*     CLOUDY    73  72  94 S9        29.99S
HARRISBURG*    CLOUDY    72  72 100 SE5       30.02R
ROBINSON*      CLOUDY    73  71  93 S8        30.00S
CARMI*         CLOUDY    73  72  98 SE7       30.00S
$$

ABBREVIATIONS USED IN REMARKS
   TC - TEMPERATURE IN CELSIUS
  WCI - WIND CHILL INDEX
   HX - HEAT INDEX
  VSB - VISIBILITY
$$



USA.gov is the U.S. government's official web portal to all federal, state and local government web resources and services.